Frederick, OK

2:21 PM CDT on April 29, 2017 (GMT -0500)
Frederick Municipal

Weather History for KFDR - November, 2012

Change the Weather History Date:

Thursday, November 8, 2012

  Actual Average (KLTS) Record (KLTS)
Temperature  
Mean Temperature 65 °F -  
Max Temperature 84 °F 61 °F 87 °F (2005)
Min Temperature 46 °F 41 °F 32 °F (2000)
Growing Degree Days 15 (Base 50)    
Moisture  
Dew Point 45 °F    
Average Humidity 50    
Maximum Humidity 71    
Minimum Humidity 28    
Precipitation  
Precipitation 0.00 in - - ()
Sea Level Pressure  
Sea Level Pressure 29.87 in    
Wind  
Wind Speed 12 mph (SSE)    
Max Wind Speed 25 mph    
Max Gust Speed 31 mph    
Visibility 10 miles    
Events      
Averages and records for this station are not official NWS values.
T = Trace of Precipitation, MM = Missing Value Source: NWS Daily Summary

Daily Weather History Graph

Daily Weather History Graph

Search for Another Location

Airport or City:

Trip Planner

Search our weather history database for the weather conditions in past years. The results will help you decide how hot, cold, wet, or windy it might be!

Date:

Astronomy

Nov. 08, 2012 Rise Set
Actual Time 7:02 AM CST 5:36 PM CST
Civil Twilight 6:36 AM CST 6:02 PM CST
Nautical Twilight 6:06 AM CST 6:32 PM CST
Astronomical Twilight 5:37 AM CST 7:01 PM CST
Moon 1:14 AM CST (11/8) 2:04 PM CST (11/8)
Length of Visible Light 11h 25m
Length of Day
10h 33m
Waning Crescent, 32% of the Moon is Illuminated
Nov 8
Waning Crescent
Nov 13
New
Nov 20
First Quarter
Nov 28
Full
Dec 6
Last Quarter

Hourly Weather History & Observations

Time (CST) Temp. Windchill Dew Point Humidity Pressure Visibility Wind Dir Wind Speed Gust Speed Precip Events Conditions
12:53 AM 48.9 °F - 35.1 °F 59% 29.96 in 10.0 mi East 8.1 mph - N/A   Clear
1:53 AM 48.0 °F - 35.1 °F 61% 29.95 in 10.0 mi East 6.9 mph - N/A   Clear
2:53 AM 46.9 °F - 35.1 °F 63% 29.94 in 10.0 mi East 6.9 mph - N/A   Clear
3:53 AM 46.9 °F - 36.0 °F 66% 29.94 in 10.0 mi ENE 5.8 mph - N/A   Clear
4:53 AM 46.9 °F - 36.0 °F 66% 29.94 in 10.0 mi East 6.9 mph - N/A   Clear
5:53 AM 46.0 °F 43.1 °F 37.0 °F 71% 29.94 in 10.0 mi ENE 5.8 mph - N/A   Clear
6:53 AM 46.9 °F - 37.0 °F 68% 29.94 in 10.0 mi East 5.8 mph - N/A   Clear
7:53 AM 50.0 °F - 39.0 °F 66% 29.95 in 10.0 mi ESE 9.2 mph - N/A   Clear
8:53 AM 60.1 °F - 43.0 °F 53% 29.95 in 10.0 mi SSE 12.7 mph - N/A   Clear
9:53 AM 68.0 °F - 46.9 °F 47% 29.93 in 10.0 mi South 16.1 mph - N/A   Clear
10:53 AM 73.0 °F - 48.9 °F 42% 29.91 in 10.0 mi South 17.3 mph - N/A   Clear
11:53 AM 77.0 °F - 50.0 °F 39% 29.88 in 10.0 mi South 18.4 mph 25.3 mph N/A   Clear
12:53 PM 82.0 °F - 51.1 °F 34% 29.83 in 10.0 mi SSW 19.6 mph 25.3 mph N/A   Clear
1:45 PM 53.6 °F - 21.2 °F 28% 29.97 in 10.0 mi NW 15.0 mph 20.7 mph N/A   Clear
1:53 PM 84.0 °F - 52.0 °F 33% 29.79 in 10.0 mi South 24.2 mph 31.1 mph N/A   Clear
2:53 PM 84.0 °F - 52.0 °F 33% 29.77 in 10.0 mi South 25.3 mph 29.9 mph N/A   Clear
3:53 PM 84.9 °F - 51.1 °F 31% 29.76 in 10.0 mi South 23.0 mph - N/A   Clear
4:53 PM 81.0 °F - 50.0 °F 34% 29.77 in 10.0 mi South 16.1 mph - N/A   Clear
5:53 PM 77.0 °F - 52.0 °F 42% 29.78 in 10.0 mi SSE 12.7 mph - N/A   Clear
6:53 PM 73.0 °F - 52.0 °F 48% 29.79 in 10.0 mi SSE 12.7 mph - N/A   Clear
7:53 PM 73.9 °F - 53.1 °F 48% 29.80 in 10.0 mi South 16.1 mph - N/A   Clear
8:53 PM 73.0 °F - 54.0 °F 51% 29.79 in 10.0 mi South 18.4 mph - N/A   Clear
9:53 PM 70.0 °F - 53.1 °F 55% 29.80 in 10.0 mi South 15.0 mph - N/A   Clear
10:53 PM 70.0 °F - 53.1 °F 55% 29.81 in 10.0 mi South 16.1 mph - N/A   Clear
11:53 PM 71.1 °F - 53.1 °F 53% 29.81 in 10.0 mi South 17.3 mph - N/A   Clear